Flag for Russia Weather past 2 weeks in Yekaterinburg, Russia

Now
30 °F

Mostly cloudy.


Feels Like: 24 °F
Forecast: 12 / 30 °F
Wind: 6 mph from Southeast

Location: Ekaterinburg

Current Time: Dec 22, 2014 at 6:53:15 PM

Latest Report: Dec 22, 2014 at 6:00 PM


Visibility: N/A

Pressure: 29.74 "Hg

Humidity: 86%

Dew point: 27 °F

Location of YekaterinburgLocation

Historic Weather in Yekaterinburg — Graph

°F

Yekaterinburg temperature yesterday

Maximum temperature yesterday: 36 °F (at 7:30 PM)
Minimum temperature yesterday: 23 °F (at 7:00 AM)
Average temperature yesterday: 29 °F

Past Weeks' High & Low Weather Summary

 TemperatureHumidityPressure
High36 °F (Dec 13, 5:00 PM)100% (Dec 8, 10:00 AM)30.57 "Hg (Dec 8, 10:00 AM)
Low-4 °F (Dec 12, 3:00 AM)39% (Dec 9, 8:00 PM)29.56 "Hg (Dec 21, 2:30 PM)
Average24 °F86%30.18 "Hg
* Reported Dec 7 5:00 PM — Dec 22 5:30 PM, Yekaterinburg, Weather by CustomWeather, © 2014

Note: Actual official high and low records may vary slightly from our data, if they occured in-between our weather recording intervals... More about our weather records

Advertising

Yekaterinburg weather history for previous 24 hours

 ConditionsComfort  
Time TempWeatherWind HumidityBarometerVisibility
5:30 PM
Dec 22
30 °FMostly cloudy.3 mph80%29.77 "HgN/A
5:00 PM30 °FMostly cloudy.3 mph80%29.77 "HgN/A
4:30 PM32 °FMostly cloudy.3 mph80%29.77 "HgN/A
4:00 PM34 °FOvercast.10 mph75%29.77 "HgN/A
3:30 PM34 °FOvercast.8 mph75%29.77 "HgN/A
3:00 PM34 °FOvercast.8 mph75%29.77 "HgN/A
2:30 PM34 °FOvercast.8 mph75%29.80 "HgN/A
2:00 PM34 °FOvercast.10 mph75%29.77 "HgN/A
1:30 PM34 °FOvercast.6 mph81%29.80 "HgN/A
1:00 PM32 °FMostly cloudy.6 mph80%29.80 "HgN/A
12:30 PM32 °FMostly cloudy.3 mph80%29.80 "HgN/A
12:00 PM30 °FPartly sunny.3 mph80%29.80 "HgN/A
11:30 AM32 °FPartly sunny.3 mph80%29.80 "HgN/A
11:00 AM30 °FMostly cloudy.6 mph80%29.80 "HgN/A
10:30 AM30 °FMostly cloudy.6 mph86%29.80 "HgN/A
10:00 AM30 °FMostly cloudy.6 mph86%29.80 "HgN/A
9:30 AM32 °FMostly cloudy.8 mph80%29.80 "HgN/A
8:30 AM32 °FOvercast.10 mph80%29.80 "HgN/A
7:30 AM32 °FOvercast.13 mph80%29.80 "HgN/A
7:00 AM32 °FOvercast.8 mph80%29.77 "HgN/A
6:30 AM32 °FOvercast.10 mph80%29.77 "HgN/A
6:00 AM32 °FOvercast.13 mph80%29.77 "HgN/A
5:30 AM32 °FMostly cloudy.8 mph80%29.77 "HgN/A
5:00 AM32 °FMostly cloudy.13 mph80%29.77 "HgN/A
4:30 AM34 °FMostly cloudy.24 mph75%29.77 "HgN/A
4:00 AM34 °FPassing clouds.15 mph75%29.77 "HgN/A
3:30 AM32 °FPassing clouds.10 mph93%29.74 "HgN/A
2:30 AM30 °FPassing clouds.8 mph86%29.74 "HgN/A
2:00 AM30 °FPassing clouds.10 mph93%29.71 "HgN/A
1:30 AM32 °FPassing clouds.8 mph93%29.71 "HgN/A
1:00 AM34 °FMostly cloudy.8 mph87%29.71 "HgN/A
12:30 AM36 °FOvercast.13 mph81%29.68 "HgN/A
12:00 AM36 °FOvercast.13 mph81%29.68 "HgN/A
11:30 PM
Dec 21
36 °FOvercast.10 mph81%29.65 "HgN/A
11:00 PM36 °FOvercast.13 mph87%29.65 "HgN/A
10:30 PM36 °FOvercast.10 mph87%29.62 "HgN/A
10:00 PM36 °FOvercast.10 mph87%29.62 "HgN/A
9:30 PM36 °FOvercast.13 mph87%29.62 "HgN/A
9:00 PM36 °FOvercast.10 mph87%29.62 "HgN/A
8:30 PM36 °FOvercast.13 mph81%29.59 "HgN/A
8:00 PM36 °FOvercast.13 mph81%29.59 "HgN/A
7:30 PM36 °FOvercast.13 mph81%29.59 "HgN/A
7:00 PM32 °FOvercast.6 mph93%29.59 "HgN/A
6:30 PM32 °FSnow flurries. Overcast.8 mph87%29.56 "HgN/A
6:00 PM30 °FOvercast.8 mph86%29.56 "HgN/A
Weather by CustomWeather, © 2014

See weather overviewHow to use our weather pages